Mather AFB, CA

7:04 AM PDT on April 23, 2018 (GMT -0700)
Mather

Weather History for KMHR - December, 2013

Change the Weather History Date:

Tuesday, December 31, 2013

  Actual Average Record
Temperature  
Mean Temperature 50 °F -  
Max Temperature 62 °F 50 °F 66 °F (1996)
Min Temperature 33 °F 37 °F 24 °F (2010)
Degree Days  
Heating Degree Days 16    
Moisture  
Dew Point 33 °F    
Average Humidity 64    
Maximum Humidity 93    
Minimum Humidity 30    
Precipitation  
Precipitation 0.00 in - - ()
Sea Level Pressure  
Sea Level Pressure 30.20 in    
Wind  
Wind Speed 2 mph (NNE)    
Max Wind Speed 7 mph    
Max Gust Speed -    
Visibility 9 miles    
Events      
Averages and records for this station are not official NWS values.
T = Trace of Precipitation, MM = Missing Value Source: NWS Daily Summary

Daily Weather History Graph

Daily Weather History Graph

Search for Another Location

Airport or City:

Astronomy

Dec. 31, 2013 Rise Set
Actual Time 7:22 AM PST 4:54 PM PST
Civil Twilight 6:53 AM PST 5:23 PM PST
Nautical Twilight 6:19 AM PST 5:57 PM PST
Astronomical Twilight 5:47 AM PST 6:29 PM PST
Moon 6:21 AM PST (12/31) 4:35 PM PST (12/31)
Length of Visible Light 10h 30m
Length of Day
9h 31m
Waning Crescent, 1% of the Moon is Illuminated
Dec 31
Waning Crescent
Jan 1
New
Jan 7
First Quarter
Jan 15
Full
Jan 23
Last Quarter

Hourly Weather History & Observations

Time (PST) Temp. Windchill Dew Point Humidity Pressure Visibility Wind Dir Wind Speed Gust Speed Precip Events Conditions
2:55 AM 37.4 °F 34.9 °F 32.0 °F 81% 30.24 in 8.0 mi NE 3.5 mph - N/A   Scattered Clouds
4:45 AM 39.2 °F - 35.6 °F 87% 30.23 in 8.0 mi Calm Calm - N/A   Scattered Clouds
5:55 AM 37.4 °F - 35.6 °F 93% 30.22 in 8.0 mi Calm Calm - N/A   Scattered Clouds
6:50 AM 37.4 °F - 35.6 °F 93% 30.22 in 8.0 mi Calm Calm - N/A   Scattered Clouds
7:55 AM 41.0 °F - 37.4 °F 87% 30.26 in 8.0 mi Calm Calm - N/A   Mostly Cloudy
8:55 AM 44.6 °F - 37.4 °F 76% 30.26 in 8.0 mi Calm Calm - N/A   Mostly Cloudy
9:55 AM 46.4 °F - 37.4 °F 71% 30.27 in 8.0 mi Calm Calm - N/A   Mostly Cloudy
11:46 AM 55.4 °F - 33.8 °F 44% 30.23 in 10.0 mi Calm Calm - N/A   Mostly Cloudy
12:46 PM 59.0 °F - 32.0 °F 36% 30.20 in 10.0 mi NNW 5.8 mph - N/A   Scattered Clouds
1:46 PM 62.6 °F - 32.0 °F 32% 30.18 in 10.0 mi North 6.9 mph - N/A   Partly Cloudy
2:46 PM 62.6 °F - 32.0 °F 32% 30.17 in 10.0 mi NNW 5.8 mph - N/A   Partly Cloudy
3:46 PM 62.6 °F - 30.2 °F 30% 30.17 in 10.0 mi North 6.9 mph - N/A   Partly Cloudy
4:45 PM 57.2 °F - 32.0 °F 38% 30.16 in 10.0 mi North 4.6 mph - N/A   Partly Cloudy
5:45 PM 53.6 °F - 30.2 °F 41% 30.16 in 10.0 mi Calm Calm - N/A   Partly Cloudy
6:47 PM 48.2 °F - 30.2 °F 50% 30.16 in 10.0 mi Calm Calm - N/A   Partly Cloudy
7:50 PM 39.2 °F - 30.2 °F 70% 30.16 in 10.0 mi Calm Calm - N/A   Partly Cloudy
8:55 PM 37.4 °F 34.9 °F 32.0 °F 81% 30.18 in 10.0 mi ENE 3.5 mph - N/A   Partly Cloudy
9:45 PM 37.4 °F - 30.2 °F 75% 30.18 in 10.0 mi Calm Calm - N/A   Partly Cloudy
10:45 PM 37.4 °F - 30.2 °F 75% 30.19 in 10.0 mi Calm Calm - N/A   Partly Cloudy
11:30 PM 33.8 °F 30.8 °F 28.4 °F 81% 30.19 in 10.0 mi ENE 3.5 mph - N/A   Partly Cloudy